Time,TemperatureF,DewpointF,PressureIn,WindDirection,WindDirectionDegrees,WindSpeedMPH,WindSpeedGustMPH,Humidity,HourlyPrecipIn,Conditions,Clouds,dailyrainin,SoftwareType,DateUTC
2013-03-14 00:00:00,59.0,23.2,29.98,SSE,153,5.0,6.0,25,0.00,CLR,,0.00,WeatherDisplay:10.37,2013-03-14 07:00:00,
2013-03-14 00:10:00,58.7,23.9,29.98,SSE,153,2.0,4.0,26,0.00,CLR,,0.00,WeatherDisplay:10.37,2013-03-14 07:10:00,
2013-03-14 00:20:00,58.1,24.2,29.98,SSE,153,2.0,5.0,27,0.00,CLR,,0.00,WeatherDisplay:10.37,2013-03-14 07:20:00,
2013-03-14 00:30:00,56.7,23.1,29.98,SSE,153,2.0,3.0,27,0.00,CLR,,0.00,WeatherDisplay:10.37,2013-03-14 07:30:00,
2013-03-14 00:40:00,57.8,24.0,29.98,SSE,153,2.0,6.0,27,0.00,CLR,,0.00,WeatherDisplay:10.37,2013-03-14 07:40:00,
2013-03-14 00:50:00,57.1,24.3,29.98,SSE,153,2.0,3.0,28,0.00,CLR,,0.00,WeatherDisplay:10.37,2013-03-14 07:50:00,
2013-03-14 01:00:00,57.0,23.3,29.98,SSE,153,2.0,4.0,27,0.00,CLR,,0.00,WeatherDisplay:10.37,2013-03-14 08:00:00,
2013-03-14 01:10:00,56.5,23.8,29.98,SSE,153,0.0,0.0,28,0.00,CLR,,0.00,WeatherDisplay:10.37,2013-03-14 08:10:00,
2013-03-14 01:20:00,55.6,24.6,29.98,SSE,153,0.0,0.0,30,0.00,CLR,,0.00,WeatherDisplay:10.37,2013-03-14 08:20:00,
2013-03-14 01:30:00,55.1,24.9,29.97,SSE,153,0.0,0.0,31,0.00,CLR,,0.00,WeatherDisplay:10.37,2013-03-14 08:30:00,
2013-03-14 01:40:00,54.1,26.3,29.97,SSE,153,0.0,0.0,34,0.00,CLR,,0.00,WeatherDisplay:10.37,2013-03-14 08:40:00,
2013-03-14 01:50:00,54.1,26.3,29.97,SSE,153,3.0,5.0,34,0.00,CLR,,0.00,WeatherDisplay:10.37,2013-03-14 08:50:00,
2013-03-14 02:00:00,52.9,26.6,29.98,SSE,153,2.0,3.0,36,0.00,CLR,,0.00,WeatherDisplay:10.37,2013-03-14 09:00:00,
2013-03-14 02:05:00,53.1,26.8,29.98,SSE,153,0.0,3.0,36,0.00,CLR,,0.00,WeatherDisplay:10.37,2013-03-14 09:05:00,
2013-03-14 02:10:00,53.3,27.0,29.98,SSE,153,0.0,0.0,36,0.00,CLR,,0.00,WeatherDisplay:10.37,2013-03-14 09:10:00,
2013-03-14 02:20:00,54.1,27.0,29.98,SSE,153,0.0,3.0,35,0.00,CLR,,0.00,WeatherDisplay:10.37,2013-03-14 09:20:00,
2013-03-14 02:30:00,53.9,26.1,29.98,SSE,153,0.0,3.0,34,0.00,CLR,,0.00,WeatherDisplay:10.37,2013-03-14 09:30:00,
2013-03-14 02:40:00,53.9,26.1,29.98,SSE,153,1.0,3.0,34,0.00,CLR,,0.00,WeatherDisplay:10.37,2013-03-14 09:40:00,
2013-03-14 02:50:00,54.1,25.6,29.98,SSE,153,1.0,4.0,33,0.00,CLR,,0.00,WeatherDisplay:10.37,2013-03-14 09:50:00,
2013-03-14 03:00:00,54.0,26.3,29.98,SSE,153,0.0,0.0,34,0.00,CLR,,0.00,WeatherDisplay:10.37,2013-03-14 10:00:00,
2013-03-14 03:05:00,53.6,26.6,29.98,SSE,153,0.0,0.0,35,0.00,CLR,,0.00,WeatherDisplay:10.37,2013-03-14 10:05:00,
2013-03-14 03:10:00,53.5,26.5,29.98,SSE,153,0.0,0.0,35,0.00,CLR,,0.00,WeatherDisplay:10.37,2013-03-14 10:10:00,
2013-03-14 03:20:00,53.2,26.2,29.98,SSE,153,1.0,4.0,35,0.00,CLR,,0.00,WeatherDisplay:10.37,2013-03-14 10:20:00,
2013-03-14 03:30:00,54.2,25.7,29.97,SSE,153,2.0,7.0,33,0.00,CLR,,0.00,WeatherDisplay:10.37,2013-03-14 10:30:00,
2013-03-14 03:40:00,54.4,25.9,29.97,SSE,153,2.0,5.0,33,0.00,CLR,,0.00,WeatherDisplay:10.37,2013-03-14 10:40:00,
2013-03-14 03:50:00,53.6,25.9,29.97,SSE,153,5.0,9.0,34,0.00,CLR,,0.00,WeatherDisplay:10.37,2013-03-14 10:50:00,
2013-03-14 04:00:00,53.2,26.2,29.97,SSE,153,3.0,8.0,35,0.00,CLR,,0.00,WeatherDisplay:10.37,2013-03-14 11:00:00,
2013-03-14 04:05:00,53.1,26.1,29.97,SSE,153,2.0,9.0,35,0.00,CLR,,0.00,WeatherDisplay:10.37,2013-03-14 11:05:00,
2013-03-14 04:10:00,52.6,26.4,29.97,SSE,153,2.0,5.0,36,0.00,CLR,,0.00,WeatherDisplay:10.37,2013-03-14 11:10:00,
2013-03-14 04:20:00,52.3,26.8,29.97,SSE,153,2.0,5.0,37,0.00,CLR,,0.00,WeatherDisplay:10.37,2013-03-14 11:20:00,
2013-03-14 04:30:00,52.5,26.3,29.96,SSE,153,1.0,5.0,36,0.00,CLR,,0.00,WeatherDisplay:10.37,2013-03-14 11:30:00,
2013-03-14 04:40:00,51.7,26.9,29.97,SSE,153,1.0,4.0,38,0.00,CLR,,0.00,WeatherDisplay:10.37,2013-03-14 11:40:00,
2013-03-14 04:50:00,51.7,26.9,29.97,SSE,153,1.0,4.0,38,0.00,CLR,,0.00,WeatherDisplay:10.37,2013-03-14 11:50:00,
2013-03-14 05:00:00,51.7,26.8,29.97,SSE,153,1.0,6.0,38,0.00,CLR,,0.00,WeatherDisplay:10.37,2013-03-14 12:00:00,
2013-03-14 05:05:00,51.7,26.9,29.97,SSE,153,1.0,4.0,38,0.00,CLR,,0.00,WeatherDisplay:10.37,2013-03-14 12:05:00,
2013-03-14 05:10:00,51.7,26.2,29.97,SSE,153,2.0,5.0,37,0.00,CLR,,0.00,WeatherDisplay:10.37,2013-03-14 12:10:00,
2013-03-14 05:20:00,51.9,26.4,29.98,SSE,153,2.0,4.0,37,0.00,CLR,,0.00,WeatherDisplay:10.37,2013-03-14 12:20:00,
2013-03-14 05:30:00,51.7,26.2,29.98,SSE,153,1.0,5.0,37,0.00,CLR,,0.00,WeatherDisplay:10.37,2013-03-14 12:30:00,
2013-03-14 05:40:00,51.3,26.5,29.99,SSE,153,3.0,7.0,38,0.00,CLR,,0.00,WeatherDisplay:10.37,2013-03-14 12:40:00,
2013-03-14 05:50:00,51.3,26.5,29.99,SSE,153,2.0,6.0,38,0.00,CLR,,0.00,WeatherDisplay:10.37,2013-03-14 12:50:00,
2013-03-14 06:00:00,50.8,26.1,29.99,SSE,153,0.0,3.0,38,0.00,CLR,,0.00,WeatherDisplay:10.37,2013-03-14 13:00:00,
2013-03-14 06:05:00,50.5,27.0,29.99,SSE,153,0.0,2.0,40,0.00,CLR,,0.00,WeatherDisplay:10.37,2013-03-14 13:05:00,
2013-03-14 06:10:00,50.2,27.4,30.00,SSE,153,0.0,3.0,41,0.00,CLR,,0.00,WeatherDisplay:10.37,2013-03-14 13:10:00,
2013-03-14 06:20:00,49.5,27.3,30.00,SSE,153,0.0,0.0,42,0.00,CLR,,0.00,WeatherDisplay:10.37,2013-03-14 13:20:00,
2013-03-14 06:30:00,48.9,26.8,30.03,SSE,153,0.0,0.0,42,0.00,CLR,,0.00,WeatherDisplay:10.37,2013-03-14 13:30:00,
2013-03-14 06:40:00,48.8,26.7,30.03,SSE,153,0.0,0.0,42,0.00,CLR,,0.00,WeatherDisplay:10.37,2013-03-14 13:40:00,
2013-03-14 06:50:00,48.8,27.3,30.03,SSE,153,0.0,2.0,43,0.00,CLR,,0.00,WeatherDisplay:10.37,2013-03-14 13:50:00,
2013-03-14 07:00:00,48.9,26.8,30.03,SSE,153,2.0,5.0,42,0.00,CLR,,0.00,WeatherDisplay:10.37,2013-03-14 14:00:00,
2013-03-14 07:05:00,49.1,26.4,30.03,SSE,153,3.0,5.0,41,0.00,CLR,,0.00,WeatherDisplay:10.37,2013-03-14 14:05:00,
2013-03-14 07:10:00,49.4,26.7,30.04,SSE,153,1.0,4.0,41,0.00,CLR,,0.00,WeatherDisplay:10.37,2013-03-14 14:10:00,
2013-03-14 07:20:00,49.2,26.5,30.04,SSE,153,0.0,0.0,41,0.00,CLR,,0.00,WeatherDisplay:10.37,2013-03-14 14:20:00,
2013-03-14 07:30:00,49.2,26.5,30.05,SSE,153,0.0,1.0,41,0.00,CLR,,0.00,WeatherDisplay:10.37,2013-03-14 14:30:00,
2013-03-14 07:40:00,50.2,26.2,30.05,SSE,153,2.0,5.0,39,0.00,CLR,,0.00,WeatherDisplay:10.37,2013-03-14 14:40:00,
2013-03-14 07:50:00,51.7,26.9,30.05,SSE,153,2.0,5.0,38,0.00,CLR,,0.00,WeatherDisplay:10.37,2013-03-14 14:50:00,
2013-03-14 08:00:00,52.6,27.0,30.05,SSE,153,0.0,2.0,37,0.00,CLR,,0.00,WeatherDisplay:10.37,2013-03-14 15:00:00,
2013-03-14 08:05:00,52.9,27.3,30.05,SSE,153,0.0,2.0,37,0.00,CLR,,0.00,WeatherDisplay:10.37,2013-03-14 15:05:00,
2013-03-14 08:10:00,53.5,26.5,30.05,SSE,153,1.0,3.0,35,0.00,CLR,,0.00,WeatherDisplay:10.37,2013-03-14 15:10:00,
2013-03-14 08:20:00,55.7,26.2,30.05,SSE,153,2.0,4.0,32,0.00,CLR,,0.00,WeatherDisplay:10.37,2013-03-14 15:20:00,
2013-03-14 08:30:00,57.1,26.7,30.06,SSE,153,2.0,4.0,31,0.00,CLR,,0.00,WeatherDisplay:10.37,2013-03-14 15:30:00,
2013-03-14 08:40:00,58.7,25.7,30.05,SSE,153,1.0,3.0,28,0.00,CLR,,0.00,WeatherDisplay:10.37,2013-03-14 15:40:00,
2013-03-14 08:50:00,60.0,25.9,30.05,SSE,153,0.0,3.0,27,0.00,CLR,,0.00,WeatherDisplay:10.37,2013-03-14 15:50:00,
2013-03-14 09:00:00,61.9,24.7,30.05,SSE,153,0.0,2.0,24,0.00,CLR,,0.00,WeatherDisplay:10.37,2013-03-14 16:00:00,
2013-03-14 09:10:00,63.7,21.8,30.04,South,169,3.0,7.0,20,0.00,CLR,,0.00,WeatherDisplay:10.37,2013-03-14 16:10:00,
2013-03-14 09:20:00,64.0,22.1,30.04,South,178,5.0,5.0,20,0.00,CLR,,0.00,WeatherDisplay:10.37,2013-03-14 16:20:00,
2013-03-14 09:30:00,64.7,21.4,30.04,South,181,5.0,6.0,19,0.00,CLR,,0.00,WeatherDisplay:10.37,2013-03-14 16:30:00,
2013-03-14 09:40:00,66.0,22.5,30.04,South,182,2.0,5.0,19,0.00,CLR,,0.00,WeatherDisplay:10.37,2013-03-14 16:40:00,
2013-03-14 09:50:00,66.9,22.0,30.04,South,184,3.0,6.0,18,0.00,CLR,,0.00,WeatherDisplay:10.37,2013-03-14 16:50:00,
2013-03-14 10:00:00,67.9,21.4,30.03,South,185,1.0,5.0,17,0.00,CLR,,0.00,WeatherDisplay:10.37,2013-03-14 17:00:00,
2013-03-14 10:05:00,68.3,21.8,30.03,South,185,2.0,4.0,17,0.00,CLR,,0.00,WeatherDisplay:10.37,2013-03-14 17:05:00,
2013-03-14 10:10:00,68.4,21.8,30.04,South,185,2.0,6.0,17,0.00,CLR,,0.00,WeatherDisplay:10.37,2013-03-14 17:10:00,
2013-03-14 10:20:00,69.4,21.2,30.03,South,188,2.0,4.0,16,0.00,CLR,,0.00,WeatherDisplay:10.37,2013-03-14 17:20:00,
2013-03-14 10:30:00,70.3,21.9,30.02,South,189,1.0,3.0,16,0.00,CLR,,0.00,WeatherDisplay:10.37,2013-03-14 17:30:00,
2013-03-14 10:40:00,71.4,22.9,30.02,South,189,0.0,1.0,16,0.00,CLR,,0.00,WeatherDisplay:10.37,2013-03-14 17:40:00,
2013-03-14 10:50:00,72.6,22.2,30.02,South,189,0.0,0.0,15,0.00,CLR,,0.00,WeatherDisplay:10.37,2013-03-14 17:50:00,
2013-03-14 11:00:00,73.2,22.7,30.01,South,189,0.0,1.0,15,0.00,CLR,,0.00,WeatherDisplay:10.37,2013-03-14 18:00:00,
2013-03-14 11:10:00,74.4,23.7,30.01,South,189,1.0,4.0,15,0.00,CLR,,0.00,WeatherDisplay:10.37,2013-03-14 18:10:00,
2013-03-14 11:20:00,75.0,22.6,30.01,South,189,0.0,2.0,14,0.00,CLR,,0.00,WeatherDisplay:10.37,2013-03-14 18:20:00,
2013-03-14 11:30:00,75.1,24.3,30.01,South,189,1.0,3.0,15,0.00,CLR,,0.00,WeatherDisplay:10.37,2013-03-14 18:30:00,
2013-03-14 11:40:00,76.3,23.6,30.00,South,189,1.0,4.0,14,0.00,CLR,,0.00,WeatherDisplay:10.37,2013-03-14 18:40:00,
2013-03-14 11:50:00,77.7,22.9,30.00,South,189,0.0,2.0,13,0.00,CLR,,0.00,WeatherDisplay:10.37,2013-03-14 18:50:00,
2013-03-14 12:00:00,78.3,23.4,29.99,South,189,0.0,0.0,13,0.00,CLR,,0.00,WeatherDisplay:10.37,2013-03-14 19:00:00,
2013-03-14 12:05:00,78.3,23.3,29.99,South,189,0.0,5.0,13,0.00,CLR,,0.00,WeatherDisplay:10.37,2013-03-14 19:05:00,
2013-03-14 12:10:00,78.6,23.6,29.99,South,189,1.0,2.0,13,0.00,CLR,,0.00,WeatherDisplay:10.37,2013-03-14 19:10:00,
2013-03-14 12:20:00,80.1,22.9,29.98,South,189,2.0,5.0,12,0.00,CLR,,0.00,WeatherDisplay:10.37,2013-03-14 19:20:00,
2013-03-14 12:30:00,80.1,22.8,29.98,South,175,0.0,2.0,12,0.00,CLR,,0.00,WeatherDisplay:10.37,2013-03-14 19:30:00,
2013-03-14 12:40:00,81.6,22.0,29.97,South,175,1.0,3.0,11,0.00,CLR,,0.00,WeatherDisplay:10.37,2013-03-14 19:40:00,
2013-03-14 12:50:00,82.1,22.4,29.97,South,175,0.0,1.0,11,0.00,CLR,,0.00,WeatherDisplay:10.37,2013-03-14 19:50:00,
2013-03-14 13:00:00,83.0,23.0,29.96,SSE,165,2.0,6.0,11,0.00,CLR,,0.00,WeatherDisplay:10.37,2013-03-14 20:00:00,
2013-03-14 13:10:00,83.1,23.2,29.95,SSE,147,2.0,6.0,11,0.00,CLR,,0.00,WeatherDisplay:10.37,2013-03-14 20:10:00,
2013-03-14 13:20:00,83.6,23.5,29.95,SE,132,6.0,10.0,11,0.00,CLR,,0.00,WeatherDisplay:10.37,2013-03-14 20:20:00,
2013-03-14 13:30:00,83.6,23.5,29.94,SE,126,2.0,5.0,11,0.00,CLR,,0.00,WeatherDisplay:10.37,2013-03-14 20:30:00,
2013-03-14 13:40:00,83.7,23.6,29.94,SE,130,0.0,3.0,11,0.00,CLR,,0.00,WeatherDisplay:10.37,2013-03-14 20:40:00,
2013-03-14 13:50:00,85.0,24.6,29.93,SE,130,0.0,4.0,11,0.00,CLR,,0.00,WeatherDisplay:10.37,2013-03-14 20:50:00,
2013-03-14 14:00:00,85.7,22.8,29.92,SSE,150,2.0,7.0,10,0.00,CLR,,0.00,WeatherDisplay:10.37,2013-03-14 21:00:00,
2013-03-14 14:05:00,85.9,23.0,29.92,SSE,150,0.0,7.0,10,0.00,CLR,,0.00,WeatherDisplay:10.37,2013-03-14 21:05:00,
2013-03-14 14:10:00,85.3,22.5,29.92,SSE,151,2.0,7.0,10,0.00,CLR,,0.00,WeatherDisplay:10.37,2013-03-14 21:10:00,
2013-03-14 14:20:00,85.9,23.0,29.91,SSE,152,5.0,6.0,10,0.00,CLR,,0.00,WeatherDisplay:10.37,2013-03-14 21:20:00,
2013-03-14 14:30:00,86.4,23.4,29.90,SE,142,3.0,12.0,10,0.00,CLR,,0.00,WeatherDisplay:10.37,2013-03-14 21:30:00,
2013-03-14 14:40:00,85.9,23.0,29.90,SE,127,1.0,3.0,10,0.00,CLR,,0.00,WeatherDisplay:10.37,2013-03-14 21:40:00,
2013-03-14 14:50:00,85.7,22.8,29.90,SSE,166,3.0,8.0,10,0.00,CLR,,0.00,WeatherDisplay:10.37,2013-03-14 21:50:00,
2013-03-14 15:00:00,86.1,23.1,29.89,SE,128,2.0,5.0,10,0.00,CLR,,0.00,WeatherDisplay:10.37,2013-03-14 22:00:00,
2013-03-14 15:05:00,87.1,23.9,29.89,ESE,122,5.0,10.0,10,0.00,CLR,,0.00,WeatherDisplay:10.37,2013-03-14 22:05:00,
2013-03-14 15:10:00,87.6,24.3,29.88,SE,141,1.0,9.0,10,0.00,CLR,,0.00,WeatherDisplay:10.37,2013-03-14 22:10:00,
2013-03-14 15:20:00,87.8,21.9,29.88,SSE,148,1.0,12.0,9,0.00,CLR,,0.00,WeatherDisplay:10.37,2013-03-14 22:20:00,
2013-03-14 15:30:00,87.9,22.0,29.88,SSE,161,7.0,13.0,9,0.00,CLR,,0.00,WeatherDisplay:10.37,2013-03-14 22:30:00,
2013-03-14 15:40:00,87.9,22.0,29.88,SSE,158,3.0,11.0,9,0.00,CLR,,0.00,WeatherDisplay:10.37,2013-03-14 22:40:00,
2013-03-14 15:50:00,88.2,22.2,29.87,SSE,147,7.0,13.0,9,0.00,CLR,,0.00,WeatherDisplay:10.37,2013-03-14 22:50:00,
2013-03-14 16:00:00,88.9,22.7,29.87,SE,142,5.0,9.0,9,0.00,CLR,,0.00,WeatherDisplay:10.37,2013-03-14 23:00:00,
2013-03-14 16:05:00,88.4,22.4,29.87,SE,130,6.0,16.0,9,0.00,CLR,,0.00,WeatherDisplay:10.37,2013-03-14 23:05:00,
2013-03-14 16:10:00,87.5,21.7,29.87,SE,144,3.0,10.0,9,0.00,CLR,,0.00,WeatherDisplay:10.37,2013-03-14 23:10:00,
2013-03-14 16:20:00,86.6,23.5,29.87,SSE,149,3.0,12.0,10,0.00,CLR,,0.00,WeatherDisplay:10.37,2013-03-14 23:20:00,
2013-03-14 16:30:00,85.9,23.0,29.87,SSW,205,6.0,13.0,10,0.00,CLR,,0.00,WeatherDisplay:10.37,2013-03-14 23:30:00,
2013-03-14 16:40:00,86.9,23.7,29.87,South,175,3.0,7.0,10,0.00,CLR,,0.00,WeatherDisplay:10.37,2013-03-14 23:40:00,
2013-03-14 16:50:00,87.6,21.8,29.86,SE,135,1.0,9.0,9,0.00,CLR,,0.00,WeatherDisplay:10.37,2013-03-14 23:50:00,
2013-03-14 17:00:00,87.0,21.3,29.87,South,172,7.0,13.0,9,0.00,CLR,,0.00,WeatherDisplay:10.37,2013-03-15 00:00:00,
2013-03-14 17:05:00,86.4,23.4,29.86,SSE,164,5.0,12.0,10,0.00,CLR,,0.00,WeatherDisplay:10.37,2013-03-15 00:05:00,
2013-03-14 17:10:00,86.1,23.1,29.86,SSE,163,3.0,12.0,10,0.00,CLR,,0.00,WeatherDisplay:10.37,2013-03-15 00:10:00,
2013-03-14 17:20:00,85.9,23.0,29.86,SSE,152,5.0,8.0,10,0.00,CLR,,0.00,WeatherDisplay:10.37,2013-03-15 00:20:00,
2013-03-14 17:30:00,85.7,22.8,29.86,SE,144,2.0,7.0,10,0.00,CLR,,0.00,WeatherDisplay:10.37,2013-03-15 00:30:00,
2013-03-14 17:40:00,85.7,22.8,29.86,SSE,159,0.0,9.0,10,0.00,CLR,,0.00,WeatherDisplay:10.37,2013-03-15 00:40:00,
2013-03-14 17:50:00,85.5,22.7,29.86,SSE,157,2.0,7.0,10,0.00,CLR,,0.00,WeatherDisplay:10.37,2013-03-15 00:50:00,
2013-03-14 18:00:00,84.7,22.1,29.86,SSE,148,2.0,6.0,10,0.00,CLR,,0.00,WeatherDisplay:10.37,2013-03-15 01:00:00,
2013-03-14 18:05:00,84.5,21.9,29.86,SSE,151,1.0,10.0,10,0.00,CLR,,0.00,WeatherDisplay:10.37,2013-03-15 01:05:00,
2013-03-14 18:10:00,84.0,23.8,29.87,SSE,155,2.0,7.0,11,0.00,CLR,,0.00,WeatherDisplay:10.37,2013-03-15 01:10:00,
2013-03-14 18:20:00,83.4,23.3,29.87,SSE,159,3.0,6.0,11,0.00,CLR,,0.00,WeatherDisplay:10.37,2013-03-15 01:20:00,
2013-03-14 18:30:00,82.4,22.6,29.87,SSE,160,2.0,6.0,11,0.00,CLR,,0.00,WeatherDisplay:10.37,2013-03-15 01:30:00,
2013-03-14 18:40:00,81.6,22.0,29.87,SSE,162,3.0,7.0,11,0.00,CLR,,0.00,WeatherDisplay:10.37,2013-03-15 01:40:00,
2013-03-14 18:50:00,80.2,23.0,29.88,SSE,167,5.0,7.0,12,0.00,CLR,,0.00,WeatherDisplay:10.37,2013-03-15 01:50:00,
2013-03-14 19:00:00,80.5,23.2,29.88,South,191,6.0,10.0,12,0.00,CLR,,0.00,WeatherDisplay:10.37,2013-03-15 02:00:00,
2013-03-14 19:05:00,79.9,22.7,29.88,SSW,196,5.0,7.0,12,0.00,CLR,,0.00,WeatherDisplay:10.37,2013-03-15 02:05:00,
2013-03-14 19:10:00,79.6,22.5,29.88,SSW,196,5.0,8.0,12,0.00,CLR,,0.00,WeatherDisplay:10.37,2013-03-15 02:10:00,
2013-03-14 19:20:00,78.8,21.9,29.88,SSW,200,8.0,10.0,12,0.00,CLR,,0.00,WeatherDisplay:10.37,2013-03-15 02:20:00,
2013-03-14 19:30:00,77.2,24.3,29.87,SSW,202,5.0,8.0,14,0.00,CLR,,0.00,WeatherDisplay:10.37,2013-03-15 02:30:00,
2013-03-14 19:40:00,76.3,23.6,29.87,SSW,202,3.0,8.0,14,0.00,CLR,,0.00,WeatherDisplay:10.37,2013-03-15 02:40:00,
2013-03-14 19:50:00,75.4,24.5,29.88,SSW,202,5.0,10.0,15,0.00,CLR,,0.00,WeatherDisplay:10.37,2013-03-15 02:50:00,
2013-03-14 20:00:00,74.7,23.9,29.88,SSW,202,5.0,9.0,15,0.00,CLR,,0.00,WeatherDisplay:10.37,2013-03-15 03:00:00,
2013-03-14 20:05:00,74.9,24.1,29.87,SSW,201,2.0,7.0,15,0.00,CLR,,0.00,WeatherDisplay:10.37,2013-03-15 03:05:00,
2013-03-14 20:10:00,74.9,25.6,29.88,SSW,201,5.0,7.0,16,0.00,CLR,,0.00,WeatherDisplay:10.37,2013-03-15 03:10:00,
2013-03-14 20:20:00,72.9,26.9,29.89,SSW,205,8.0,10.0,18,0.00,CLR,,0.00,WeatherDisplay:10.37,2013-03-15 03:20:00,
2013-03-14 20:30:00,72.7,30.5,29.87,SSW,208,8.0,12.0,21,0.00,CLR,,0.00,WeatherDisplay:10.37,2013-03-15 03:30:00,
2013-03-14 20:40:00,73.5,32.3,29.86,SSW,203,6.0,12.0,22,0.00,CLR,,0.00,WeatherDisplay:10.37,2013-03-15 03:40:00,
2013-03-14 20:50:00,73.5,31.1,29.87,SSW,197,3.0,6.0,21,0.00,CLR,,0.00,WeatherDisplay:10.37,2013-03-15 03:50:00,
2013-03-14 21:00:00,72.5,31.5,29.87,SSW,195,5.0,9.0,22,0.00,CLR,,0.00,WeatherDisplay:10.37,2013-03-15 04:00:00,
2013-03-14 21:05:00,72.3,30.1,29.87,SSW,192,2.0,7.0,21,0.00,CLR,,0.00,WeatherDisplay:10.37,2013-03-15 04:05:00,
2013-03-14 21:10:00,72.3,30.1,29.87,SSW,192,3.0,7.0,21,0.00,CLR,,0.00,WeatherDisplay:10.37,2013-03-15 04:10:00,
2013-03-14 21:15:00,72.5,30.3,29.87,SSW,192,5.0,7.0,21,0.00,CLR,,0.00,WeatherDisplay:10.37,2013-03-15 04:15:00,
2013-03-14 21:20:00,72.5,30.3,29.87,SSW,192,2.0,7.0,21,0.00,CLR,,0.00,WeatherDisplay:10.37,2013-03-15 04:20:00,
2013-03-14 21:30:00,72.3,30.1,29.86,SSW,192,3.0,5.0,21,0.00,CLR,,0.00,WeatherDisplay:10.37,2013-03-15 04:30:00,
2013-03-14 21:40:00,72.1,28.8,29.86,South,190,3.0,7.0,20,0.00,CLR,,0.00,WeatherDisplay:10.37,2013-03-15 04:40:00,
2013-03-14 21:50:00,72.3,29.0,29.86,South,189,3.0,8.0,20,0.00,CLR,,0.00,WeatherDisplay:10.37,2013-03-15 04:50:00,
2013-03-14 22:00:00,72.3,29.0,29.86,South,186,2.0,10.0,20,0.00,CLR,,0.00,WeatherDisplay:10.37,2013-03-15 05:00:00,
2013-03-14 22:05:00,72.1,28.8,29.86,South,184,5.0,9.0,20,0.00,CLR,,0.00,WeatherDisplay:10.37,2013-03-15 05:05:00,
2013-03-14 22:10:00,71.9,28.6,29.86,South,182,5.0,9.0,20,0.00,CLR,,0.00,WeatherDisplay:10.37,2013-03-15 05:10:00,
2013-03-14 22:20:00,71.5,28.3,29.86,South,178,3.0,10.0,20,0.00,CLR,,0.00,WeatherDisplay:10.37,2013-03-15 05:20:00,
2013-03-14 22:30:00,71.8,27.3,29.85,South,179,6.0,9.0,19,0.00,CLR,,0.00,WeatherDisplay:10.37,2013-03-15 05:30:00,
2013-03-14 22:40:00,71.6,28.4,29.86,South,184,3.0,10.0,20,0.00,CLR,,0.00,WeatherDisplay:10.37,2013-03-15 05:40:00,
2013-03-14 22:50:00,70.0,29.3,29.86,South,185,5.0,9.0,22,0.00,CLR,,0.00,WeatherDisplay:10.37,2013-03-15 05:50:00,
2013-03-14 23:00:00,70.6,29.9,29.85,South,190,2.0,7.0,22,0.00,CLR,,0.00,WeatherDisplay:10.37,2013-03-15 06:00:00,
2013-03-14 23:05:00,70.8,28.9,29.85,South,190,6.0,12.0,21,0.00,CLR,,0.00,WeatherDisplay:10.37,2013-03-15 06:05:00,
2013-03-14 23:10:00,71.5,28.3,29.86,SSW,192,6.0,15.0,20,0.00,CLR,,0.00,WeatherDisplay:10.37,2013-03-15 06:10:00,
2013-03-14 23:20:00,71.1,29.1,29.85,SSW,194,3.0,6.0,21,0.00,CLR,,0.00,WeatherDisplay:10.37,2013-03-15 06:20:00,
2013-03-14 23:30:00,70.9,29.0,29.84,SSW,194,2.0,6.0,21,0.00,CLR,,0.00,WeatherDisplay:10.37,2013-03-15 06:30:00,
2013-03-14 23:40:00,70.8,30.0,29.84,SSW,193,2.0,7.0,22,0.00,CLR,,0.00,WeatherDisplay:10.37,2013-03-15 06:40:00,
2013-03-14 23:50:00,70.3,30.7,29.84,SSW,192,3.0,5.0,23,0.00,CLR,,0.00,WeatherDisplay:10.37,2013-03-15 06:50:00,